EYESAT A (AO-27)

Last updated on Thu Oct 30 2025 00:03:10 GMT+0000 (Coordinated Universal Time)

1 22825U 93061C 25302.17506631 .00000181 00000+0 86060-4 0 9992 2 22825 98.7205 4.3236 0009339 62.3935 297.8194 14.30852085673969
UTC large
Height (km)
Speed (km/s)
/
Latitude / Longitude
Inclination (degrees)
Orbital Period (minutes)
Azimuth
Elevation
Range (km)
Doppler Factor

Next 0 passes for location: London (51.5072 / 0.1276)

Sorry there are no passes over London.